Vertical_Velocity
-1 -1 -1 -1 -0 -1 -1 -0 -1 -1 -1 -1 -2 -2 -1 -2 -1 -2 1 0 -0 -0 -0 -2 -0 0 -0 -5 8 -3 4 -6 -2 -3 -2 2 10 -7 3 15 16 8 -7 -2 -2
-1 -1 -1 -1 -1 -0 -0 -0 -0 0 -1 -1 -1 -1 -0 -0 0 -3 1 -1 -1 -0 -1 2 -4 0 -4 1 1 4 4 1 -3 -0 0 1 0 -13 -0 22 -3 19 -8 -3 -2
-1 -2 -2 -1 -0 -1 -0 -0 -1 -1 -0 0 -1 -2 -1 -1 -3 -1 -1 -1 -1 -0 1 -2 -1 -4 -0 3 0 5 4 -2 -0 -1 1 0 1 5 -8 26 31 11 -8 -0 -2
-0 -1 -1 -2 -2 -1 -1 -0 0 -1 -1 -0 -0 -0 -1 -0 -11 -4 -1 -2 -0 -0 -0 -1 -2 -9 6 20 -4 -5 2 -1 -1 -1 -1 0 2 3 -4 -8 -11 -1 1 1 -0
-1 -1 -0 -1 -1 -1 -1 -1 -0 -0 -1 -1 -0 -0 -1 -1 1 -2 2 -1 -1 0 -0 -1 -4 -2 9 0 -4 -3 9 -2 -3 -5 -3 -3 -4 1 -2 -1 -0 -1 2 1 0
-0 -1 -0 -0 -1 -1 -0 -0 -1 -1 -1 -0 -1 -1 -3 1 -3 -1 -0 1 0 -0 0 -0 -4 -5 -4 1 -3 1 -3 -1 -2 5 1 -1 -1 1 -3 1 2 -5 -4 1 -2
-1 -1 -1 -1 0 -0 -0 -1 -1 -1 -1 -1 -1 -2 -0 -4 5 -2 -1 -1 -1 -0 -1 -2 -2 -2 -4 -2 -0 0 -7 -2 -3 -2 -2 1 -2 11 1 0 -2 -2 -1 -10 -5
-0 -1 -1 -1 0 -0 -0 0 -1 -1 -1 -1 -1 -1 -1 2 -4 1 -0 1 0 0 -0 -5 -1 -2 -6 -2 0 -5 -8 11 6 -1 -4 1 -1 1 0 -6 1 -3 -4 -6 -3
-0 -0 -1 -1 -1 -0 0 -0 -1 -1 -1 -2 -1 0 -2 3 -1 -2 0 0 0 0 -1 -1 0 -0 -4 -2 0 0 3 -4 4 -7 -0 -2 6 -5 -2 -0 3 -3 3 10 3
-1 -0 -0 -0 -1 -0 0 -0 -0 -1 -0 -1 -0 -1 -0 -5 -0 0 -0 -1 0 -2 -2 -1 1 1 -6 1 14 -6 37 3 -3 9 -3 -5 21 -2 2 2 -4 -4 4 24 -47
-1 -1 0 0 -0 -0 -0 -1 -2 -3 -2 -3 -2 -1 -3 -1 1 2 -0 0 0 -2 -2 2 -1 -4 -8 23 9 -2 -0 -7 -3 -12 1 -4 -5 -9 3 4 0 -6 7 5 -19
-2 -1 -1 0 0 -0 -0 -1 3 12 1 -0 -1 -1 -3 -1 -1 -1 -1 -0 -1 -0 1 -3 1 -5 6 -4 -0 2 0 -10 18 -4 -3 -6 9 24 7 6 -1 -3 -3 8 13
-1 -1 -1 -0 1 -0 2 1 -0 1 -1 -2 -2 -1 -0 -1 -1 -1 -0 1 -1 1 2 -4 3 -8 8 -4 -2 -2 -9 -3 12 1 -0 0 -0 0 -14 -18 15 -0 -2 1 -3
-1 -1 -0 0 2 1 -1 2 -1 1 0 -1 0 -1 -1 -1 -1 -2 -0 -0 -1 2 -3 -4 6 5 -4 -1 -2 -3 30 12 -6 -2 -3 -26 21 -17 -46 23 -17 1 1 1 -2
-1 -0 -1 2 -1 2 6 1 2 2 2 1 -1 -0 -1 -1 2 -0 -2 -2 -4 2 -2 -5 -1 -4 -3 -1 -1 -8 6 -3 -3 -2 6 -25 -0 6 19 -16 -19 -0 -4 3 0
-1 -0 0 1 3 3 9 1 -0 0 -3 -1 2 1 -1 3 -1 -1 1 -1 -1 -1 -3 2 -3 -3 -0 -1 -2 -6 -5 -7 -5 -10 -4 10 2 -38 0 -2 -23 10 3 4 -3
-0 -1 -0 -1 2 -1 -0 1 0 -3 -4 -6 1 1 1 2 -0 1 1 -0 -0 1 -3 -1 -3 -2 -2 -1 4 -4 -6 -2 11 11 37 -35 3 7 6 0 -0 7 2 3 -1
-1 -0 0 3 4 -2 1 0 2 -10 4 -4 1 0 1 0 1 0 -1 -3 -3 -4 7 -5 -6 -3 1 -2 -0 -5 7 19 -5 23 -35 8 14 34 7 3 8 1 -1 2 2
-1 -1 0 1 4 1 -1 -0 1 21 17 0 1 2 0 2 2 -0 0 -2 -1 -3 -5 29 -10 14 -6 -2 -4 -8 -11 29 -24 -6 108 32 22 21 -1 16 9 -3 3 -1 -5
-0 -0 -0 2 1 0 0 5 -4 16 40 5 1 1 1 2 -0 -1 -3 -0 -2 -2 -10 -4 12 -4 -2 -0 -0 -5 5 -0 29 7 16 0 -2 2 5 0 3 -6 -4 2 3
-0 -3 2 1 -1 -3 -2 11 -11 6 -3 12 -2 -6 6 7 -1 4 2 2 -3 -2 -2 -7 22 -11 13 -2 -2 -5 -7 -1 30 -0 -26 -13 -19 -32 14 -3 2 -5 -4 -5 -4
-1 -5 -1 -3 -3 5 -4 6 -0 5 0 -4 -11 21 -13 20 -6 -4 -3 2 0 -2 -7 0 20 -1 4 -6 -2 -1 -19 -14 10 -7 6 45 -12 -17 13 16 -4 -4 8 -1 -4
1 4 -3 -4 -6 -2 12 -6 9 1 2 5 1 -9 1 -10 9 -8 4 21 -2 -2 -5 -2 1 11 2 14 1 1 1 29 -29 67 3 -0 20 28 -0 -7 -0 -5 4 8 -5
2 0 6 9 12 -14 -14 4 -3 2 -8 10 4 3 -1 -8 9 -13 25 -13 -10 -2 -3 -7 -4 23 3 7 -24 1 17 3 -6 3 6 12 -7 10 -2 3 8 3 -4 -4 3
-2 -5 -1 -17 2 17 4 1 -1 1 3 0 2 -4 -4 1 -0 -7 -3 5 -10 -2 -5 -1 -6 52 -12 -4 -44 8 1 6 -7 -9 -9 -2 4 7 -3 -10 1 6 -0 -4 -6
-16 36 32 13 -3 7 6 -9 2 1 4 -2 -6 -4 -4 -6 -8 2 10 9 -9 -6 1 -1 -5 3 5 3 6 9 -5 -2 -4 -5 3 -3 1 -1 -7 -2 -5 -2 -1 -2 -0
5 -11 -10 2 -16 2 6 3 -1 -7 2 1 2 -9 5 8 -5 5 33 5 7 1 -6 1 5 12 5 -2 -19 -7 25 4 10 6 -6 4 -9 -9 -1 -2 -4 -3 -5 -2 -3
Height
5891 5892 5894 5895 5896 5898 5899 5900 5901 5903 5904 5905 5907 5909 5911 5912 5913 5914 5917 5918 5919 5920 5922 5923 5924 5926 5927 5927 5933 5931 5933 5935 5934 5932 5930 5930 5931 5923 5927 5920 5923 5918 5918 5919 5918
5888 5890 5891 5893 5894 5895 5896 5898 5899 5900 5902 5903 5904 5906 5909 5910 5912 5914 5916 5917 5918 5920 5922 5923 5922 5926 5927 5934 5934 5933 5933 5934 5932 5933 5933 5931 5930 5921 5925 5920 5922 5922 5916 5917 5917
5885 5887 5888 5890 5891 5893 5894 5895 5897 5898 5900 5901 5902 5904 5906 5908 5910 5913 5914 5916 5918 5920 5921 5922 5923 5925 5930 5937 5935 5934 5934 5934 5933 5932 5932 5932 5932 5930 5926 5924 5923 5920 5918 5917 5916
5882 5884 5885 5887 5889 5890 5892 5893 5894 5896 5897 5899 5900 5902 5904 5905 5908 5910 5913 5915 5917 5919 5921 5922 5922 5925 5934 5941 5935 5935 5936 5934 5933 5933 5932 5932 5931 5934 5929 5925 5923 5921 5920 5919 5917
5878 5880 5882 5884 5885 5887 5889 5890 5892 5893 5895 5896 5898 5899 5901 5903 5906 5909 5911 5913 5916 5918 5919 5920 5921 5929 5936 5938 5935 5935 5939 5936 5935 5933 5932 5931 5931 5931 5929 5927 5924 5922 5921 5920 5917
5875 5876 5878 5880 5882 5884 5885 5887 5889 5890 5892 5893 5895 5897 5898 5901 5902 5906 5909 5912 5914 5916 5918 5919 5921 5925 5929 5934 5935 5935 5935 5938 5937 5938 5936 5934 5931 5931 5929 5928 5926 5921 5919 5918 5916
5871 5873 5874 5876 5878 5880 5882 5884 5885 5887 5889 5891 5892 5894 5897 5898 5902 5904 5907 5910 5912 5915 5917 5919 5920 5924 5928 5933 5936 5935 5935 5938 5938 5937 5935 5934 5931 5933 5929 5928 5925 5922 5919 5916 5915
5867 5869 5871 5873 5875 5877 5879 5881 5883 5885 5886 5888 5890 5892 5894 5896 5898 5902 5905 5909 5911 5914 5916 5916 5920 5922 5924 5931 5935 5936 5937 5940 5939 5937 5935 5935 5933 5931 5930 5927 5926 5922 5919 5915 5914
5862 5864 5866 5869 5871 5873 5875 5877 5879 5882 5883 5885 5887 5890 5892 5895 5895 5899 5903 5906 5909 5912 5914 5917 5920 5923 5925 5932 5936 5937 5941 5942 5942 5936 5935 5936 5936 5931 5931 5929 5927 5923 5921 5916 5912
5858 5860 5862 5864 5867 5870 5872 5874 5876 5878 5880 5883 5885 5888 5890 5891 5893 5896 5900 5904 5908 5910 5914 5917 5920 5923 5926 5933 5937 5936 5941 5941 5941 5939 5935 5936 5937 5931 5931 5930 5926 5923 5920 5916 5905
5854 5855 5858 5860 5863 5866 5869 5871 5874 5876 5877 5880 5882 5884 5886 5888 5891 5894 5898 5903 5906 5909 5913 5916 5920 5923 5929 5938 5934 5936 5938 5939 5940 5936 5935 5935 5938 5934 5931 5930 5926 5923 5921 5915 5911
5850 5851 5854 5856 5859 5863 5866 5868 5872 5875 5876 5877 5879 5881 5883 5885 5888 5892 5896 5901 5904 5908 5912 5916 5920 5924 5931 5932 5933 5934 5936 5939 5941 5936 5934 5933 5936 5933 5932 5929 5926 5923 5921 5919 5916
5846 5847 5850 5853 5856 5860 5863 5866 5869 5871 5873 5876 5877 5879 5881 5883 5886 5890 5895 5899 5903 5907 5911 5916 5924 5925 5931 5929 5930 5932 5935 5939 5940 5935 5934 5933 5931 5925 5919 5916 5923 5922 5919 5917 5914
5842 5844 5846 5849 5854 5856 5860 5863 5866 5870 5873 5875 5877 5878 5880 5882 5885 5889 5893 5899 5903 5907 5912 5918 5925 5927 5925 5927 5930 5933 5936 5934 5932 5932 5932 5925 5931 5924 5918 5920 5921 5921 5919 5915 5913
5838 5840 5842 5846 5850 5854 5859 5861 5866 5869 5874 5876 5876 5878 5879 5883 5887 5890 5893 5898 5902 5907 5913 5919 5921 5923 5923 5925 5927 5930 5930 5928 5928 5930 5931 5926 5928 5922 5922 5925 5922 5920 5918 5915 5914
5834 5836 5839 5843 5848 5852 5857 5861 5866 5871 5873 5875 5877 5879 5881 5883 5886 5890 5895 5899 5902 5906 5910 5917 5920 5921 5922 5922 5924 5924 5925 5926 5926 5929 5930 5921 5921 5920 5919 5922 5914 5920 5918 5915 5915
5830 5832 5835 5840 5846 5850 5854 5860 5867 5871 5874 5876 5878 5880 5883 5886 5889 5893 5896 5900 5904 5908 5910 5914 5916 5918 5919 5921 5924 5923 5924 5927 5930 5931 5931 5927 5921 5918 5918 5919 5918 5917 5917 5916 5915
5825 5828 5832 5838 5843 5848 5854 5860 5867 5871 5878 5877 5879 5881 5884 5887 5891 5894 5897 5900 5903 5907 5914 5914 5916 5917 5918 5918 5922 5923 5926 5929 5927 5927 5920 5924 5908 5911 5916 5918 5919 5917 5916 5916 5915
5822 5825 5829 5835 5841 5846 5853 5859 5867 5876 5881 5879 5879 5882 5885 5889 5893 5894 5897 5900 5903 5906 5912 5919 5919 5920 5916 5916 5918 5920 5922 5927 5924 5924 5926 5920 5915 5901 5906 5917 5918 5915 5915 5915 5913
5820 5823 5827 5833 5839 5845 5851 5858 5859 5867 5877 5881 5882 5884 5887 5891 5892 5893 5896 5899 5901 5905 5907 5914 5919 5918 5918 5917 5918 5918 5921 5923 5926 5921 5918 5917 5914 5911 5907 5915 5915 5914 5911 5913 5912
5818 5821 5825 5830 5837 5842 5850 5856 5859 5865 5870 5876 5884 5885 5889 5892 5891 5895 5897 5899 5900 5904 5906 5909 5916 5916 5915 5916 5917 5919 5918 5921 5923 5917 5913 5909 5906 5904 5910 5912 5913 5912 5910 5909 5909
5815 5818 5822 5828 5835 5841 5848 5852 5858 5864 5868 5871 5875 5881 5886 5891 5891 5891 5895 5898 5899 5900 5903 5907 5913 5906 5914 5915 5916 5917 5917 5918 5918 5910 5910 5912 5907 5906 5908 5911 5912 5908 5910 5908 5906
5812 5816 5819 5825 5831 5839 5846 5848 5857 5860 5865 5870 5874 5877 5882 5887 5890 5890 5895 5897 5896 5897 5899 5903 5906 5910 5909 5908 5913 5914 5917 5918 5912 5917 5916 5913 5902 5902 5906 5906 5906 5903 5906 5907 5904
5810 5814 5817 5821 5828 5833 5840 5846 5851 5856 5860 5868 5871 5876 5879 5882 5887 5887 5893 5890 5890 5894 5894 5898 5903 5908 5900 5903 5901 5909 5913 5913 5913 5915 5914 5911 5909 5904 5900 5901 5905 5903 5901 5901 5902
5804 5806 5808 5814 5823 5831 5835 5845 5848 5853 5858 5862 5866 5870 5875 5880 5883 5885 5888 5889 5886 5888 5890 5894 5899 5904 5891 5894 5897 5903 5907 5909 5909 5908 5909 5911 5910 5902 5897 5896 5900 5902 5900 5898 5897
5799 5802 5802 5811 5819 5826 5831 5836 5844 5850 5858 5860 5863 5867 5870 5875 5879 5885 5888 5889 5884 5885 5887 5890 5893 5894 5894 5897 5898 5900 5904 5906 5906 5906 5906 5906 5904 5899 5897 5897 5896 5896 5895 5893 5893
5798 5799 5806 5809 5814 5823 5829 5834 5839 5845 5853 5857 5862 5865 5867 5872 5876 5879 5880 5877 5881 5882 5883 5887 5892 5893 5891 5888 5888 5889 5896 5902 5903 5901 5901 5902 5895 5893 5894 5894 5892 5891 5889 5888 5887